Weather History for Orlando, FL

Change the Weather History Date:

Thursday, October 4, 2012

  Actual Average Record
Temperature  
Mean Temperature 82 °F -  
Max Temperature 91 °F 84 °F 91 °F (2007)
Min Temperature 73 °F 69 °F 64 °F (2010)
Cooling Degree Days 16    
Growing Degree Days 32 (Base 50)    
Moisture  
Dew Point 72 °F    
Average Humidity 80    
Maximum Humidity 94    
Minimum Humidity 53    
Precipitation  
Precipitation 0.07 in - - ()
Sea Level Pressure  
Sea Level Pressure 30.17 in    
Wind  
Wind Speed 5 mph (NE)    
Max Wind Speed 20 mph    
Max Gust Speed 25 mph    
Visibility 10 miles    
Events Rain    
Averages and records for this station are not official NWS values.
T = Trace of Precipitation, MM = Missing Value Source: NWS Daily Summary

Daily Weather History Graph

Daily Weather History Graph

Search for Another Location

Airport:

Trip Planner

Search our weather history database for the weather conditions in past years. The results will help you decide how hot, cold, wet, or windy it might be!

Date:

Astronomy

Oct. 04, 2012 Rise Set
Actual Time 7:20 AM EDT 7:07 PM EDT
Civil Twilight 6:56 AM EDT 7:30 PM EDT
Nautical Twilight 6:29 AM EDT 7:58 PM EDT
Astronomical Twilight 6:01 AM EDT 8:25 PM EDT
Moon 10:03 PM EDT (10/4) 11:14 AM EDT (10/4)
Length of Visible Light 12h 34m
Length of Day
11h 46m
Waning Gibbous, 82% of the Moon is Illuminated
Oct 4
Waning Gibbous
Oct 8
Last Quarter
Oct 15
New
Oct 21
First Quarter
Oct 29
Full

Hourly Weather History & Observations

Time (EDT) Temp. Heat Index Dew Point Humidity Pressure Visibility Wind Dir Wind Speed Gust Speed Precip Events Conditions
12:53 AM 75.0 °F - 72.0 °F 90% 30.19 in 10.0 mi East 4.6 mph - N/A   Clear
1:53 AM 75.0 °F - 72.0 °F 90% 30.18 in 10.0 mi NE 3.5 mph - N/A   Clear
2:53 AM 75.0 °F - 72.0 °F 90% 30.16 in 10.0 mi ENE 5.8 mph - N/A   Clear
3:53 AM 75.0 °F - 72.0 °F 90% 30.15 in 10.0 mi East 3.5 mph - N/A   Clear
4:53 AM 73.9 °F - 72.0 °F 93% 30.15 in 10.0 mi ENE 3.5 mph - N/A   Clear
5:53 AM 75.0 °F - 72.0 °F 90% 30.17 in 10.0 mi Calm Calm - N/A   Clear
6:53 AM 75.9 °F - 72.0 °F 87% 30.19 in 10.0 mi Calm Calm - N/A   Clear
7:53 AM 75.9 °F - 73.0 °F 91% 30.19 in 10.0 mi Calm Calm - N/A   Clear
8:53 AM 81.0 °F 86.7 °F 75.0 °F 82% 30.20 in 10.0 mi ENE 3.5 mph - N/A   Clear
9:09 AM 80.6 °F 86.2 °F 75.2 °F 84% 30.19 in 10.0 mi North 3.5 mph - N/A   Mostly Cloudy
9:17 AM 82.4 °F 89.5 °F 75.2 °F 79% 30.19 in 10.0 mi Calm Calm - N/A   Scattered Clouds
9:53 AM 82.0 °F 88.6 °F 75.0 °F 79% 30.21 in 10.0 mi NW 4.6 mph - N/A   Scattered Clouds
10:53 AM 84.9 °F 93.3 °F 75.0 °F 72% 30.20 in 10.0 mi ENE 4.6 mph - N/A   Partly Cloudy
11:53 AM 87.1 °F 94.5 °F 73.0 °F 63% 30.19 in 10.0 mi East 5.8 mph - N/A   Mostly Cloudy
12:53 PM 90.0 °F 96.9 °F 72.0 °F 55% 30.18 in 10.0 mi ENE 4.6 mph - N/A   Scattered Clouds
1:53 PM 89.1 °F 94.1 °F 70.0 °F 53% 30.15 in 10.0 mi Calm Calm - N/A   Partly Cloudy
2:53 PM 89.1 °F 96.0 °F 72.0 °F 57% 30.12 in 10.0 mi ESE 5.8 mph - N/A   Mostly Cloudy
3:53 PM 90.0 °F 97.9 °F 73.0 °F 57% 30.09 in 10.0 mi ESE 9.2 mph - 0.01 in   Scattered Clouds
4:53 PM 86.0 °F 91.5 °F 71.1 °F 61% 30.10 in 10.0 mi NNE 12.7 mph - N/A   Overcast
6:16 PM 78.8 °F - 71.6 °F 78% 30.12 in 10.0 mi North 19.6 mph 25.3 mph 0.01 in   Mostly Cloudy
6:53 PM 78.1 °F - 70.0 °F 76% 30.15 in 10.0 mi NNE 9.2 mph 18.4 mph 0.01 in Rain Light Rain
7:53 PM 75.0 °F - 71.1 °F 87% 30.19 in 10.0 mi West 11.5 mph - 0.00 in Rain Light Rain
8:04 PM 73.4 °F - 71.6 °F 94% 30.18 in 10.0 mi WNW 11.5 mph - 0.00 in Rain Light Rain
8:53 PM 75.0 °F - 71.1 °F 87% 30.18 in 10.0 mi NNW 8.1 mph - 0.01 in Rain Light Rain
9:53 PM 75.0 °F - 71.1 °F 87% 30.19 in 10.0 mi NW 6.9 mph - 0.03 in Rain Light Rain
10:53 PM 73.9 °F - 71.1 °F 91% 30.14 in 10.0 mi NNE 10.4 mph - 0.01 in Rain Light Rain
11:53 PM 75.0 °F - 72.0 °F 90% 30.15 in 10.0 mi Calm Calm - 0.00 in   Clear